TURKSAT 4B (40984 NORAD) Tracking and Keplerian Element Data

This shows tracking and keplerian element data for the satellite.

Feedback or suggestion? Click here.




ElementValue
Catalog40984
NameTURKSAT 4B
Epoch Orbit1289
Epoch Day109.87132553
Epoch Year2019
RAAN212.821
Inclination0.0096
Eccentricity0.0002247
Argument of Perigee176.1724
Mean Anonmoly182.3804
Mean Motion1.00275242
Decay Rate9.5E-07
L11 40984U 15060A 19109.87132553 .00000095 00000-0 00000-0 0 9995
L22 40984 0.0096 212.8210 0002247 176.1724 182.3804 1.00275242 12890

Live tracking and technical data element details for TURKSAT 4B (NORAD 40984). TURKSAT 4B can be tracked NOW for your location showing map with azimuth and elevation plus other details from your city location.

Track the satellite on the map from your city or location and see movement details for azimuth, elevation, latitude, longitude, range, height, and movement on the map or in text.







IsCatalogInMostPopularTable: catalog: 40984, numindb: 225
Update: records affected: 1



GetName: 40984 TURKSAT 4B

Hit Count: updated at: Sat, 20 Apr 2019 20:09:46 GMT